Location: Atbuku
(36.4936°N, 30.4362°E)
Time: 10:23:46
(UTC+00:00)

IRS-P3 - Pass Details

Date: 18 March 2026
Orbit: 810 x 816 km, 99.0° (Epoch: 20 April)

Event Time Altitude Azimuth Distance (km) Brightness Sun altitude
Rises 17:17:50 0° 199° (SSW) 3,326 7.4 -14.8°
Reaches altitude 10° 17:20:40 10° 214° (SW) 2,399 6.9 -15.3°
Maximum altitude 17:24:44 22° 265° (W) 1,704 6.7 -16.1°
Drops below altitude 10° 17:28:50 10° 315° (NW) 2,410 7.4 -16.9°
Sets 17:31:42 0° 331° (NNW) 3,346 8.0 -17.5°
